Weather History for Wrangell, AK

Change the Weather History Date:

Friday, April 12, 2013

  Actual Average Record
Temperature  
Mean Temperature 40 °F -  
Max Temperature 46 °F 47 °F 55 °F (1963)
Min Temperature 35 °F 33 °F 22 °F (1966)
Degree Days  
Heating Degree Days 24    
Moisture  
Dew Point 29 °F    
Average Humidity 64    
Maximum Humidity 81    
Minimum Humidity 46    
Precipitation  
Precipitation 0.02 in - - ()
Sea Level Pressure  
Sea Level Pressure 29.61 in    
Wind  
Wind Speed 12 mph (ESE)    
Max Wind Speed 21 mph    
Max Gust Speed 26 mph    
Visibility 9 miles    
Events      
Averages and records for this station are not official NWS values.
T = Trace of Precipitation, MM = Missing Value Source: NWS Daily Summary

Daily Weather History Graph

Daily Weather History Graph

Search for Another Location

Airport:

Trip Planner

Search our weather history database for the weather conditions in past years. The results will help you decide how hot, cold, wet, or windy it might be!

Date:

Astronomy

Apr. 12, 2013 Rise Set
Actual Time 5:49 AM AKDT 7:52 PM AKDT
Civil Twilight 5:09 AM AKDT 8:32 PM AKDT
Nautical Twilight 4:18 AM AKDT 9:24 PM AKDT
Astronomical Twilight 3:17 AM AKDT 10:26 PM AKDT
Moon 6:38 AM AKDT (4/12) 11:00 PM AKDT (4/12)
Length of Visible Light 15h 23m
Length of Day
14h 02m
Waxing Crescent, 6% of the Moon is Illuminated
Apr 12
Waxing Crescent
Apr 18
First Quarter
Apr 25
Full
May 2
Last Quarter
May 9
New

Hourly Weather History & Observations

Time (AKDT) Temp. Windchill Dew Point Humidity Pressure Visibility Wind Dir Wind Speed Gust Speed Precip Events Conditions
12:16 AM 35.6 °F 27.1 °F 30.2 °F 81% 29.85 in 10.0 mi East 12.7 mph - N/A   Overcast
12:36 AM 37.4 °F 29.3 °F 28.4 °F 70% 29.83 in 10.0 mi ESE 12.7 mph - N/A   Overcast
12:56 AM 37.4 °F 28.5 °F 28.4 °F 70% 29.80 in 10.0 mi East 15.0 mph 19.6 mph N/A   Overcast
1:16 AM 37.4 °F 28.9 °F 28.4 °F 70% 29.78 in 10.0 mi ESE 13.8 mph - N/A   Overcast
1:36 AM 37.4 °F 28.9 °F 28.4 °F 70% 29.77 in 10.0 mi ESE 13.8 mph - N/A   Overcast
1:56 AM 37.4 °F 28.5 °F 26.6 °F 65% 29.74 in 10.0 mi ESE 15.0 mph - N/A   Overcast
2:16 AM 39.2 °F 31.2 °F 26.6 °F 61% 29.74 in 10.0 mi ESE 13.8 mph - N/A   Overcast
2:36 AM 39.2 °F 31.6 °F 26.6 °F 61% 29.72 in 10.0 mi ESE 12.7 mph - N/A   Overcast
2:56 AM 39.2 °F 29.8 °F 26.6 °F 61% 29.70 in 10.0 mi ESE 18.4 mph - N/A   Overcast
3:16 AM 39.2 °F 30.8 °F 26.6 °F 61% 29.68 in 10.0 mi ESE 15.0 mph 20.7 mph N/A   Overcast
3:36 AM 39.2 °F 29.8 °F 26.6 °F 61% 29.66 in 10.0 mi ESE 18.4 mph - N/A   Overcast
3:56 AM 39.2 °F 30.2 °F 26.6 °F 61% 29.65 in 10.0 mi ESE 17.3 mph 21.9 mph N/A   Overcast
4:16 AM 39.2 °F 30.5 °F 26.6 °F 61% 29.63 in 10.0 mi East 16.1 mph 23.0 mph N/A   Overcast
4:36 AM 39.2 °F 30.5 °F 28.4 °F 65% 29.62 in 10.0 mi East 16.1 mph - N/A   Overcast
4:56 AM 39.2 °F 30.2 °F 26.6 °F 61% 29.61 in 10.0 mi ESE 17.3 mph 23.0 mph N/A   Overcast
5:16 AM 39.2 °F 29.8 °F 28.4 °F 65% 29.59 in 10.0 mi East 18.4 mph 23.0 mph N/A   Overcast
5:36 AM 39.2 °F 29.6 °F 28.4 °F 65% 29.58 in 10.0 mi East 19.6 mph 25.3 mph N/A   Overcast
5:56 AM 37.4 °F 26.9 °F 26.6 °F 65% 29.57 in 10.0 mi ESE 20.7 mph 26.5 mph N/A   Overcast
6:16 AM 35.6 °F 25.2 °F 28.4 °F 75% 29.56 in 10.0 mi ESE 18.4 mph - N/A   Overcast
6:36 AM 35.6 °F 25.5 °F 28.4 °F 75% 29.55 in 10.0 mi East 17.3 mph 23.0 mph N/A   Overcast
6:56 AM 35.6 °F 26.6 °F 30.2 °F 81% 29.54 in 10.0 mi East 13.8 mph - 0.01 in   Overcast
7:16 AM 35.6 °F 27.5 °F 30.2 °F 81% 29.53 in 5.0 mi ESE 11.5 mph - 0.01 in   Overcast
7:36 AM 35.6 °F 26.6 °F 30.2 °F 81% 29.53 in 5.0 mi ESE 13.8 mph 19.6 mph 0.01 in   Overcast
7:56 AM 35.6 °F 27.5 °F 30.2 °F 81% 29.52 in 5.0 mi ESE 11.5 mph - 0.01 in   Overcast
8:16 AM 37.4 °F 29.8 °F 30.2 °F 75% 29.51 in 5.0 mi East 11.5 mph - N/A   Overcast
8:36 AM 37.4 °F 29.8 °F 30.2 °F 75% 29.51 in 5.0 mi East 11.5 mph - N/A   Overcast
8:56 AM 37.4 °F 29.8 °F 28.4 °F 70% 29.50 in 5.0 mi East 11.5 mph - N/A   Overcast
9:16 AM 37.4 °F 29.3 °F 28.4 °F 70% 29.50 in 5.0 mi East 12.7 mph - N/A   Overcast
9:36 AM 37.4 °F 29.8 °F 28.4 °F 70% 29.51 in 5.0 mi ESE 11.5 mph 18.4 mph N/A   Overcast
9:56 AM 37.4 °F 30.8 °F 28.4 °F 70% 29.51 in 5.0 mi ESE 9.2 mph - N/A   Overcast
10:16 AM 37.4 °F 30.8 °F 28.4 °F 70% 29.51 in 10.0 mi ESE 9.2 mph - N/A   Overcast
10:36 AM 39.2 °F 31.6 °F 30.2 °F 70% 29.50 in 10.0 mi East 12.7 mph - N/A   Overcast
10:56 AM 41.0 °F 33.5 °F 28.4 °F 61% 29.50 in 10.0 mi East 13.8 mph 18.4 mph N/A   Overcast
11:16 AM 42.8 °F 36.6 °F 30.2 °F 61% 29.50 in 10.0 mi East 11.5 mph 20.7 mph N/A   Overcast
11:36 AM 42.8 °F 37.5 °F 30.2 °F 61% 29.51 in 10.0 mi ESE 9.2 mph 17.3 mph N/A   Overcast
11:56 AM 42.8 °F 38.6 °F 30.2 °F 61% 29.51 in 10.0 mi East 6.9 mph - N/A   Overcast
12:16 PM 42.8 °F 35.8 °F 28.4 °F 57% 29.51 in 10.0 mi East 13.8 mph 20.7 mph N/A   Overcast
12:36 PM 42.8 °F 35.4 °F 30.2 °F 61% 29.50 in 10.0 mi ENE 15.0 mph - N/A   Overcast
12:56 PM 42.8 °F 34.8 °F 28.4 °F 57% 29.50 in 10.0 mi ENE 17.3 mph 21.9 mph N/A   Overcast
1:16 PM 42.8 °F 35.1 °F 28.4 °F 57% 29.51 in 10.0 mi ENE 16.1 mph 21.9 mph N/A   Overcast
1:36 PM 44.6 °F 37.8 °F 28.4 °F 53% 29.52 in 10.0 mi ENE 15.0 mph 20.7 mph N/A   Overcast
1:56 PM 44.6 °F 39.7 °F 28.4 °F 53% 29.52 in 10.0 mi East 9.2 mph 17.3 mph N/A   Mostly Cloudy
2:16 PM 44.6 °F 38.8 °F 26.6 °F 49% 29.52 in 10.0 mi East 11.5 mph 20.7 mph N/A   Mostly Cloudy
2:36 PM 46.4 °F 41.9 °F 28.4 °F 50% 29.53 in 10.0 mi NE 9.2 mph - N/A   Mostly Cloudy
2:56 PM 46.4 °F 41.9 °F 28.4 °F 50% 29.53 in 10.0 mi NE 9.2 mph 17.3 mph N/A   Scattered Clouds
3:16 PM 46.4 °F 40.4 °F 28.4 °F 50% 29.54 in 10.0 mi ENE 13.8 mph 23.0 mph N/A   Scattered Clouds
3:36 PM 46.4 °F 41.1 °F 28.4 °F 50% 29.54 in 10.0 mi ENE 11.5 mph 18.4 mph N/A   Scattered Clouds
3:56 PM 46.4 °F 43.5 °F 28.4 °F 50% 29.55 in 10.0 mi East 5.8 mph - N/A   Partly Cloudy
4:16 PM 46.4 °F 42.4 °F 26.6 °F 46% 29.56 in 10.0 mi ENE 8.1 mph - N/A   Partly Cloudy
4:36 PM 44.6 °F 39.7 °F 26.6 °F 49% 29.56 in 10.0 mi ENE 9.2 mph - N/A   Partly Cloudy
4:56 PM 46.4 °F - 28.4 °F 50% 29.58 in 10.0 mi Calm Calm - N/A   Scattered Clouds
5:16 PM 44.6 °F - 30.2 °F 57% 29.59 in 10.0 mi Calm Calm - N/A   Scattered Clouds
5:36 PM 44.6 °F 40.2 °F 30.2 °F 57% 29.60 in 10.0 mi SW 8.1 mph - N/A   Scattered Clouds
5:56 PM 42.8 °F 39.3 °F 30.2 °F 61% 29.60 in 10.0 mi SW 5.8 mph - N/A   Partly Cloudy
6:16 PM 44.6 °F 40.7 °F 30.2 °F 57% 29.61 in 10.0 mi SW 6.9 mph - N/A   Partly Cloudy
6:36 PM 44.6 °F 40.7 °F 30.2 °F 57% 29.62 in 10.0 mi SW 6.9 mph - N/A   Partly Cloudy
6:56 PM 42.8 °F 38.6 °F 30.2 °F 61% 29.63 in 10.0 mi SW 6.9 mph - N/A   Scattered Clouds
7:16 PM 42.8 °F 38.0 °F 30.2 °F 61% 29.63 in 10.0 mi SW 8.1 mph - N/A   Scattered Clouds
7:36 PM 42.8 °F 39.3 °F 30.2 °F 61% 29.64 in 10.0 mi WSW 5.8 mph - N/A   Scattered Clouds
7:56 PM 41.0 °F 35.8 °F 30.2 °F 65% 29.65 in 10.0 mi SW 8.1 mph - N/A   Partly Cloudy
8:16 PM 39.2 °F 35.9 °F 30.2 °F 70% 29.66 in 10.0 mi WSW 4.6 mph - N/A   Partly Cloudy
8:36 PM 41.0 °F 37.1 °F 30.2 °F 65% 29.67 in 10.0 mi SW 5.8 mph - N/A   Partly Cloudy
8:56 PM 39.2 °F 35.0 °F 30.2 °F 70% 29.68 in 10.0 mi WSW 5.8 mph - N/A   Partly Cloudy
9:16 PM 39.2 °F 34.2 °F 28.4 °F 65% 29.69 in 10.0 mi SW 6.9 mph - N/A   Partly Cloudy
9:36 PM 39.2 °F 34.2 °F 28.4 °F 65% 29.70 in 10.0 mi WSW 6.9 mph - N/A   Partly Cloudy
9:56 PM 39.2 °F 33.6 °F 30.2 °F 70% 29.71 in 10.0 mi SW 8.1 mph - N/A   Partly Cloudy
10:16 PM 37.4 °F 32.1 °F 28.4 °F 70% 29.71 in 10.0 mi SW 6.9 mph - N/A   Partly Cloudy
10:36 PM 39.2 °F 35.0 °F 28.4 °F 65% 29.72 in 10.0 mi SW 5.8 mph - N/A   Partly Cloudy
10:56 PM 39.2 °F 35.9 °F 30.2 °F 70% 29.73 in 10.0 mi SW 4.6 mph - N/A   Partly Cloudy
11:16 PM 37.4 °F 32.8 °F 30.2 °F 75% 29.74 in 10.0 mi WSW 5.8 mph - N/A   Clear
11:36 PM 39.2 °F 35.0 °F 30.2 °F 70% 29.75 in 10.0 mi SW 5.8 mph - N/A   Clear
11:56 PM 37.4 °F 32.1 °F 30.2 °F 75% 29.76 in 10.0 mi SW 6.9 mph - N/A   Clear